Location: Godiavel Galaoual
(15.2485°N, 12.6604°W)
Time: 06:22:47
(UTC+00:00)

Cosmos 1441 Rocket - Pass Details

Date: 27 February 2020
Orbit: 496 x 541 km, 81.1° (Epoch: 07 April)

Event Time Altitude Azimuth Distance (km) Brightness Sun altitude
Rises 19:42:54 0° 160° (SSE) 2,603 6.6 -11.6°
Reaches altitude 10° 19:45:20 10° 145° (SE) 1,728 5.6 -12.2°
Maximum altitude 19:48:20 22° 93° (E) 1,150 4.3 -12.9°
Enters shadow 19:49:10 21° 73° (ENE) 1,208 4.4 -13.1°
